Flag Weather past 2 weeks in Öhringen, Baden-Württemberg, Germany

Now
41 °F

Overcast.


Feels Like: 37 °F
Forecast: 34 / 45 °F
Wind: 6 mph from East

Location: Oehringen

Current Time: Nov 26, 2014 at 1:41:08 AM

Latest Report: Nov 26, 2014 at 1:00 AM


Visibility: 6 mi

Pressure: 30.15 "Hg

Humidity: 81%

Dew point: 35 °F

Location of ÖhringenLocation

Historic Weather in Öhringen — Graph

°F

Öhringen temperature yesterday

Maximum temperature yesterday: 47 °F (at 1:00 PM)
Minimum temperature yesterday: 41 °F (at 6:00 AM)
Average temperature yesterday: 44 °F

Past Weeks' High & Low Weather Summary

 TemperatureHumidityPressure
High54 °F (Nov 22, 2:00 PM)100% (Nov 13, 6:00 AM)30.35 "Hg (Nov 13, 6:00 AM)
Low36 °F (Nov 21, 8:00 AM)69% (Nov 22, 1:00 PM)29.50 "Hg (Nov 16, 1:00 AM)
Average45 °F90%29.97 "Hg
* Reported Midnight between Nov 10 and Nov 11 — Midnight between Nov 25 and Nov 26, Öhringen, Weather by CustomWeather, © 2014

Note: Actual official high and low records may vary slightly from our data, if they occured in-between our weather recording intervals... More about our weather records

Advertising

Öhringen weather history for previous 24 hours

 ConditionsComfort  
Time TempWeatherWind HumidityBarometerVisibility
12:00 AM
Nov 26
42 °FOvercast.5 mph81%30.16 "Hg5 mi
11:00 PM
Nov 25
43 °FOvercast.6 mph80%30.15 "Hg5 mi
10:00 PM44 °FOvercast.3 mph82%30.17 "Hg5 mi
9:00 PM44 °FFog.5 mph82%30.17 "Hg4 mi
8:00 PM44 °FOvercast.5 mph83%30.18 "Hg5 mi
7:00 PM44 °FOvercast.5 mph84%30.19 "Hg6 mi
6:00 PM45 °FOvercast.5 mph84%30.19 "Hg5 mi
5:00 PM46 °FOvercast.5 mph82%30.19 "Hg6 mi
4:00 PM46 °FOvercast.5 mph81%30.19 "Hg7 mi
3:00 PM47 °FOvercast.5 mph82%30.20 "Hg7 mi
2:00 PM47 °FOvercast.5 mph81%30.21 "Hg7 mi
1:00 PM47 °FOvercast.5 mph81%30.23 "Hg7 mi
12:00 PM47 °FOvercast.5 mph83%30.24 "Hg7 mi
11:00 AM45 °FOvercast.5 mph85%30.27 "Hg5 mi
10:00 AM44 °FFog.5 mph88%30.28 "Hg4 mi
9:00 AM43 °FFog.6 mph88%30.28 "Hg4 mi
8:00 AM43 °FFog.3 mph92%30.28 "Hg3 mi
7:00 AM42 °FFog.3 mph93%30.28 "Hg3 mi
6:00 AM41 °FFog.3 mph93%30.29 "Hg3 mi
5:00 AM42 °FFog.3 mph92%30.29 "Hg3 mi
4:00 AM43 °FFog.3 mph90%30.31 "Hg4 mi
3:00 AM44 °FFog.5 mph89%30.30 "Hg4 mi
2:00 AM44 °FFog.5 mph90%30.31 "Hg4 mi
1:00 AM44 °FFog.3 mph90%30.31 "Hg4 mi
Weather by CustomWeather, © 2014

See weather overviewHow to use our weather pages